Regional Weather Roundup
Issued by NWS

Home | Current Version | Previous Version | Text Only | Print | Product List | Glossary On
Versions: 1 2 3 4 5 6 7 8 9 10 11 12 13 14 15 16 17 18 19 20 21 22 23 24 25 26 27 28 29 30 31 32 33 34 35 36 37 38 39 40 41 42 43 44 45 46 47 48 49 50
000
ASHW40 PHFO 282043
RWRHI

WEATHER ROUNDUP FOR HAWAII
NATIONAL WEATHER SERVICE HONOLULU HI
1000 AM HST SUN MAY 28 2017

THIS IS AN AUTOMATED REPORT THAT HAS NOT BEEN QUALITY CONTROLLED.

NOTE..."FAIR" INDICATES FEW OR NO CLOUDS BELOW 12,000 FEET WITH NO
SIGNIFICANT WEATHER AND/OR OBSTRUCTIONS TO VISIBILITY.

* - THESE SITES REPORT LIMITED FIELDS

HIZ001>004-282100-
KAUAI-NIIHAU-

CITY           SKY/WX    TMP DP  RH WIND       PRES   REMARKS
LIHUE APT      MOSUNNY   79  67  66 E6        30.04R
PORT ALLEN*      N/A     81 N/A N/A SE7         N/A
POIPU*           N/A     82 N/A N/A SE3         N/A
PRINCEVILLE*     N/A     81 N/A N/A SE3         N/A
KOKOLE POINT*  NOT AVBL
MOLOAA DAIRY*    N/A     79  68  69 SE5G10      N/A
WAIMEA HTS*      N/A     84  64  51 S8          N/A
PUU OPAE*      NOT AVBL
PUU LUA*       NOT AVBL
MAKAHA RIDGE*    N/A     75  63  64 NW3         N/A
$$

HIZ005>011-282100-
OAHU-

CITY           SKY/WX    TMP DP  RH WIND       PRES   REMARKS
HONOLULU       MOSUNNY   78  65  63 S8        30.02S
KALAELOA       SUNNY     83  66  56 SE9       30.03S
KANEOHE MCB    CLOUDY    80  72  76 NW6       30.01
WHEELER FIELD  FAIR      78  65  64 CALM      30.03S
BELLOWS*         N/A    N/A N/A N/A E7          N/A
KAHUKU*          N/A    N/A N/A N/A NE7G13      N/A
WHEELER*         N/A    N/A N/A N/A SE2G8       N/A
WAIANAE HARBOR   N/A    N/A N/A N/A W7          N/A
DILLINGHAM*      N/A     90  70  51 SE1G8       N/A  HX  95
KAHUKU TRN*      N/A     84  72  65 NW3G14      N/A
KAWAILOA*        N/A     75  68  78 W1G9        N/A
KII*             N/A     81  70  69 E9          N/A
MAKUA RANGE*     N/A     68  54  60 SE3         N/A
OAHU FOREST NW   N/A     75  64  69 E12         N/A
SCHOFIELD BRK*   N/A     79  64  61 CALM        N/A
SCHOFIELD S*   NOT AVBL
WAIANAE VLY*   NOT AVBL
KUAOKALA*        N/A     79  66  65 N7G14       N/A
HONOULIUULI*   NOT AVBL
MOKUOLOE IS*   NOT AVBL
PALEHUA*         N/A     75  63  64 S3          N/A
WAIAWA PHB*    NOT AVBL
$$

HIZ012>013-282100-
MOLOKAI-

CITY           SKY/WX    TMP DP  RH WIND       PRES   REMARKS
MOLOKAI AIRPT  MOSUNNY   83  67  58 VRB6      30.04S
KALAUPAPA      NOT AVBL
MAKAPULAPAI*     N/A     82  70  65 E12         N/A
MOLOKAI 1*     NOT AVBL
PUU ALII*        N/A     64  60  88 SW1         N/A
$$

HIZ016-282100-
KAHOOLAWE-

CITY           SKY/WX    TMP DP  RH WIND       PRES   REMARKS
KAHOOLAWE*     NOT AVBL
HAKIOAWA*        N/A     79  67  65 MISG      30.45S
HONOKANAIA*      N/A     80  65  59 E12G18    29.96R
KANELOA*         N/A     79  68  69 E13G21    30.09R
KEALIALALO*    NOT AVBL
LUA MAKIKA*    NOT AVBL
$$

HIZ014>015-282100-
LANAI-

CITY           SKY/WX    TMP DP  RH WIND       PRES   REMARKS
LANAI CITY     CLOUDY    73  64  73 W7        30.08F
LANAI 1*       NOT AVBL
$$

HIZ017>028-282100-
MAUI-

CITY           SKY/WX    TMP DP  RH WIND       PRES   REMARKS
KAHULUI        MOSUNNY   84  67  56 NE17      30.02S
KAPALUA-W MAUI MOSUNNY   81  64  57 CALM      30.03
HANA AIRPORT   MOSUNNY   82  68  61 NE8       30.05F
HANA*            N/A     79 N/A N/A E7G13       N/A
HALEAKALA SUMM   N/A     54  37  54 S5G16       N/A
MAALAEA BAY*     N/A     84 N/A N/A N10G18      N/A
HALEAKALA*     NOT AVBL
KAUPO GAP*     NOT AVBL
KULA 1*          N/A     61  56  84 W3          N/A
$$

HIZ023>026-282100-
BIG ISLAND OF HAWAII COAST AND LOWER SLOPES-

CITY           SKY/WX    TMP DP  RH WIND       PRES   REMARKS
KAILUA KONA    MOSUNNY   81  67  62 NW10      30.00R
HILO           MOSUNNY   81  70  69 NE7       30.02S
HONOKAA*         N/A     73 N/A N/A VRB1        N/A
KAWAIHAE MWT*    N/A     81 N/A N/A W9          N/A
KAWAIHAE*        N/A     79 N/A N/A SW6       30.01S
SOUTH POINT*     N/A     77 N/A N/A N16G23      N/A
UPOLU AIRPORT* NOT AVBL
KAMUELA*       NOT AVBL
HAKALAU*         N/A     64  52  64 S5G12       N/A
KALOKO-HONOKO*   N/A     84  68  58 W9          N/A
PALI 2*          N/A     73  64  73 NW12G18     N/A
KEALAKOMO*       N/A     82  68  61 E16         N/A
KAUPULEHU*       N/A     81  64  57 W7G15       N/A
KAPAPALA*        N/A     78  65  63 SE5G10      N/A
LOWER KAHUKU*    N/A     72  63  73 SE2G12      N/A
PUHE CS*         N/A     81  64  57 W6G12       N/A
PUHO CS*         N/A     83  67  57 W3          N/A
PTA KEAMUKU*     N/A    N/A N/A N/A CALM        N/A
WAIKOLOA*        N/A     79  64  61 W6G14       N/A
$$

HIZ027>028-282100-
BIG ISLAND OF HAWAII INTERIOR AND SUMMMITS-

CITY           SKY/WX    TMP DP  RH WIND       PRES   REMARKS
BRADSHAW FIELD MOSUNNY   69  46  44 W9        30.32R
MK VISITOR CEN   N/A     54  36  50 W9          N/A
MAUNA KEA*       N/A     37   5  25 SW12        N/A  WCI  30
MAUNA LOA*       N/A    N/A N/A N/A MISG        N/A
MAUNA LOA 1*   NOT AVBL
PTA KIPUKA*      N/A    N/A N/A N/A VRB6G14     N/A
PTA RANGE 17*    N/A     70  52  52 NW12G21     N/A
PTA WEST*        N/A     70  55  60 NW10G16     N/A
NENE CABIN*      N/A     61  48  63 E6G13       N/A
AHUMOA*          N/A     59  54  83 N6G14       N/A
PTA PORTABLE*  NOT AVBL
PUU MALI*        N/A     55  55 100 VRB5G16     N/A
$$

HIC003-282100-
NORTHWEST ISLANDS-

CITY           SKY/WX    TMP DP  RH WIND       PRES   REMARKS
MIDWAY ISLAND  SUNNY     72  59  64 W5        30.14R
MIDWAY NOS*      N/A     72 N/A N/A MISG      30.13R
FRENCH FRIGATE NOT AVBL
$$

PHZ110>124-180-282100-
BUOY REPORTS

STATION/POSITION TIME  TEMP    WIND        PRES    WAVE   SWELL
                       AIR SEA DIR/SP/G            HT/PER HT/DIR
                 (UTC) (F)     (DEG/KT/KT) (MB)    (FT/S) (FT/D)
BUOY 51001       2020   74 76   90/  2/  4 1016.8
BUOY 51101       1950   74 76   40/  4/  4 1017.3R   5/15   5/180
BUOY 51100       NOT AVBL
BUOY 51002       2020   78 78   70/ 12/ 14 1015.3
BUOY 51003       1950   78 80  100/  8/  8 1016.0R   5/14   5/160
BUOY 51004       1950      78  110/ 10/ 14 1017.1R   7/12   7/150
BARBERS PT BUOY  NOT AVBL
WAIMEA BAY BUOY  2002      78                N/A     4/11   2/ 20
KAILUA BAY BUOY  2004      80                N/A     4/12   2/ 60
LANAI BUOY       NOT AVBL
BARBERS PT 2     NOT AVBL
PAUWELA MAUI     1939      79                N/A     4/11   2/ 40
HILO             2012      79                N/A     4/10   3/ 60
KANEOHE BAY BUOY 2025      80                N/A     4/12   2/ 30
HANALEI KAUAI    2022      80                N/A     4/ 8   2/ 50
KAHULUI HARBOR   2000   78 80   60/  9/ 14 1016.6
HONOLULU HARBOR  2000   78 79  180/  4/  8 1017.4
KILO NALU        NOT AVBL
HILO HARBOR      2000   78 78   30/  7/  8 1016.4
MOKUOLOE         1936   76 80  350/  7/ 11 1016.9R
NAWILIWILI       2000   79     110/  4/  5 1016.7
WHOTS BUOY       NOT AVBL
BUOY 51028       NOT AVBL
$$

......................KEY........................................
  SKY/WX - SKY CONDITIONS/PRESENT WEATHER
  TMP    - TEMPERATURE IN FAHRENHEIT
  DWPT   - DEWPOINT IN FAHRENHEIT
  RH     - RELATIVE HUMIDITY IN PERCENT
  WIND   - DIRECTION AND SPEED /MPH FOR ISLANDS...KTS FOR BUOYS/
  PRES   - MEAN SEA LEVEL PRESSURE IN INCHES OF HG
  VSB    - VISIBILITY IN MILES
  HX     - HEAT INDEX
  WCI    - WIND CHILL INDEX
  VRB    - VARIABLE WIND DIRECTION
  N/A    - NOT AVAILABLE




USA.gov is the U.S. government's official web portal to all federal, state and local government web resources and services.